Temp
63 62 57 52 46 49 42 38 43 45 53 61 66 67 67 67 70 70 72 75 76 77 78 78 78 77 76 75 76 76 76 76
60 61 60 53 55 46 43 36 35 43 46 48 57 60 64 65 66 70 72 73 74 77 77 78 79 79 78 77 76 76 77 77
51 48 47 47 44 41 41 40 37 37 41 60 57 60 61 63 65 68 72 72 73 76 74 76 79 79 79 78 77 76 77 77
41 51 57 54 44 39 35 35 37 39 41 59 61 63 64 64 65 68 71 72 73 75 73 71 77 79 78 79 78 77 78 77
38 44 48 45 47 41 38 35 34 33 41 62 60 61 64 63 64 66 68 68 70 69 68 69 70 71 74 79 78 79 78 77
33 34 41 40 46 46 39 34 34 37 42 50 54 54 59 61 64 66 66 66 65 65 66 69 70 71 70 75 77 79 78 77
36 44 44 43 44 46 41 40 37 43 43 45 50 54 56 60 63 63 64 64 65 65 66 69 70 70 71 73 74 78 77 76
35 43 43 40 45 47 47 47 45 45 43 49 54 56 55 56 60 59 61 64 64 64 66 68 69 69 70 71 72 77 78 77
27 38 40 34 41 45 44 45 46 40 42 50 50 53 53 54 56 56 58 62 62 63 63 66 66 66 66 68 70 71 77 77
26 31 24 38 46 50 45 47 47 47 48 50 50 55 57 56 55 56 58 59 61 62 62 63 64 64 65 69 68 70 71 74
26 25 33 41 45 43 40 40 47 44 47 48 50 52 55 56 57 57 59 60 60 63 63 62 61 62 63 68 69 69 69 69
26 22 25 36 43 48 45 34 46 46 44 44 46 42 46 52 54 57 61 61 62 62 63 63 61 61 62 62 64 63 66 68
26 24 32 40 43 47 33 33 43 45 43 42 39 42 46 52 54 57 59 61 62 63 62 60 61 60 58 60 59 62 64 65
30 22 24 44 44 36 38 39 41 42 42 42 43 47 49 50 53 54 54 59 61 60 59 61 60 59 56 56 59 61 62 64
32 30 41 41 39 41 41 37 39 40 42 43 44 46 48 48 48 52 53 55 59 57 58 58 59 55 54 56 58 59 59 60
32 35 37 40 41 41 40 40 45 47 45 47 45 47 47 48 50 48 50 52 54 54 55 53 56 56 55 56 57 57 58 59
30 35 37 40 41 44 44 46 46 48 47 46 46 45 46 47 47 48 49 50 52 53 52 54 54 54 55 54 57 56 56 56
28 35 35 36 41 43 43 45 46 45 45 46 46 45 48 48 49 47 49 50 50 53 53 52 53 53 53 54 54 54 52 55
36 38 39 40 42 44 44 45 45 46 46 44 46 46 47 47 49 51 49 49 53 53 52 49 48 50 53 53 54 52 51 53
MSLP
1009.50 1009.33 1009.28 1009.56 1010.31 1010.90 1012.12 1013.17 1012.76 1012.09 1010.63 1009.41 1008.90 1008.21 1007.21 1006.59 1006.91 1006.77 1006.93 1007.54 1007.61 1008.02 1008.57 1009.43 1010.29 1010.98 1011.78 1012.67 1013.61 1013.97 1014.45 1014.94
1010.91 1010.27 1010.59 1010.93 1011.75 1012.34 1013.08 1014.32 1014.29 1013.35 1012.40 1012.07 1010.69 1009.91 1009.24 1008.15 1007.63 1006.95 1007.03 1007.37 1007.90 1008.03 1008.31 1008.65 1009.09 1009.94 1011.06 1011.59 1012.33 1013.32 1013.75 1014.52
1012.65 1013.36 1013.35 1013.12 1014.11 1014.58 1014.95 1015.37 1015.29 1014.78 1014.40 1013.19 1012.34 1011.22 1010.21 1009.47 1008.16 1007.11 1006.72 1006.98 1007.08 1007.63 1008.35 1008.78 1009.46 1010.17 1010.65 1011.37 1012.03 1012.36 1013.33 1013.87
1015.85 1015.37 1014.91 1015.12 1016.16 1016.28 1017.04 1017.53 1016.71 1015.78 1015.41 1013.86 1012.83 1011.77 1010.71 1009.61 1008.33 1007.34 1006.90 1007.22 1007.39 1007.82 1008.67 1009.07 1009.38 1009.85 1010.00 1010.80 1011.40 1012.00 1012.27 1013.04
1017.53 1016.77 1016.27 1016.82 1017.41 1017.39 1018.11 1018.44 1018.57 1017.76 1015.99 1014.29 1013.30 1012.43 1011.63 1010.73 1009.35 1007.74 1007.49 1007.77 1008.53 1008.87 1009.49 1009.93 1010.02 1010.25 1010.59 1010.94 1011.19 1011.70 1012.51 1012.75
1019.03 1018.97 1018.76 1018.59 1018.43 1018.35 1018.55 1019.21 1019.28 1017.89 1016.92 1016.09 1014.81 1013.84 1012.62 1011.93 1011.04 1009.93 1009.42 1009.63 1009.91 1010.07 1010.45 1010.41 1010.08 1010.20 1010.60 1010.83 1011.21 1011.43 1012.07 1012.62
1019.92 1019.53 1019.12 1018.91 1018.93 1018.87 1018.91 1018.84 1019.01 1018.21 1017.95 1017.55 1016.80 1015.76 1014.74 1013.71 1012.57 1011.99 1011.69 1011.09 1011.05 1011.09 1011.03 1010.63 1010.31 1010.26 1010.56 1010.49 1010.66 1011.15 1011.63 1011.97
1020.71 1019.95 1019.29 1018.98 1018.79 1018.69 1018.55 1018.47 1018.55 1018.59 1018.44 1018.19 1017.59 1016.69 1015.31 1014.89 1014.11 1013.49 1013.11 1012.54 1012.33 1012.13 1011.91 1011.33 1010.55 1010.19 1010.22 1010.15 1010.21 1010.33 1010.71 1010.93
1021.95 1021.01 1019.92 1019.37 1018.63 1018.53 1018.53 1018.48 1018.52 1019.21 1019.00 1018.85 1018.27 1017.75 1017.04 1016.09 1015.35 1014.69 1014.07 1013.65 1012.85 1012.77 1012.70 1012.30 1011.90 1011.81 1011.34 1010.85 1010.05 1009.84 1010.06 1010.64
1023.31 1022.41 1021.57 1020.10 1019.08 1018.83 1019.25 1019.36 1019.28 1019.50 1019.71 1019.62 1019.11 1018.37 1017.83 1017.09 1016.36 1015.65 1015.10 1014.60 1014.08 1013.51 1013.23 1013.10 1012.95 1012.23 1011.58 1010.52 1009.95 1009.91 1009.69 1010.07
1024.18 1023.72 1022.26 1020.55 1019.72 1019.97 1020.15 1020.51 1020.27 1020.32 1020.52 1019.98 1019.80 1018.67 1017.94 1017.69 1017.12 1016.35 1015.65 1015.23 1014.92 1014.29 1013.71 1013.45 1013.37 1012.83 1011.90 1011.00 1010.45 1010.04 1010.27 1009.90
1024.89 1024.52 1023.28 1021.44 1021.05 1020.71 1020.39 1020.94 1020.82 1021.07 1021.28 1021.08 1020.50 1019.79 1018.96 1018.29 1017.64 1016.80 1015.87 1015.21 1014.91 1014.60 1013.89 1013.65 1013.11 1012.81 1012.32 1012.06 1011.49 1011.26 1010.91 1010.65
1024.86 1024.49 1022.89 1022.26 1021.65 1020.99 1021.32 1022.60 1022.07 1022.23 1022.22 1022.05 1021.80 1021.19 1020.48 1019.33 1018.03 1017.23 1016.53 1015.47 1014.71 1014.56 1014.29 1014.20 1013.78 1013.19 1013.19 1012.94 1012.47 1012.05 1011.37 1011.00
1025.18 1024.64 1023.49 1022.64 1021.95 1022.21 1022.63 1022.50 1022.87 1022.89 1022.90 1022.47 1021.79 1021.23 1020.26 1019.95 1018.89 1017.66 1017.00 1016.21 1015.49 1014.83 1014.37 1014.37 1014.34 1012.95 1012.87 1012.66 1012.59 1012.49 1011.99 1011.49
1024.92 1023.95 1023.01 1022.90 1022.77 1022.85 1022.91 1022.89 1022.86 1022.94 1022.93 1022.52 1021.62 1021.11 1020.25 1019.27 1019.11 1018.17 1017.28 1016.65 1015.92 1015.45 1014.56 1014.27 1014.09 1013.48 1013.02 1013.05 1012.71 1012.17 1012.28 1011.79
1024.96 1023.37 1022.99 1022.83 1022.81 1022.87 1022.95 1022.89 1022.65 1022.63 1022.42 1021.99 1021.21 1020.68 1020.25 1019.29 1018.59 1018.15 1017.48 1016.74 1016.16 1015.45 1015.00 1014.41 1013.60 1013.62 1013.56 1012.78 1012.54 1012.69 1011.51 1010.68
1024.56 1023.30 1023.01 1022.51 1022.53 1022.77 1022.70 1022.58 1022.37 1022.16 1021.95 1021.62 1020.97 1020.13 1019.90 1018.98 1018.36 1017.77 1017.25 1016.68 1016.09 1015.47 1014.69 1013.93 1013.55 1013.09 1013.12 1012.94 1012.69 1012.35 1011.90 1011.17
1023.04 1022.29 1022.36 1022.40 1022.24 1022.44 1022.55 1022.19 1021.95 1021.61 1021.16 1020.90 1020.46 1019.69 1019.20 1018.35 1017.78 1017.29 1016.80 1016.45 1015.77 1015.07 1014.62 1014.29 1013.67 1013.22 1012.51 1011.56 1011.31 1011.49 1011.41 1010.88
1022.11 1021.85 1021.77 1021.92 1022.09 1021.86 1021.81 1021.50 1021.27 1020.97 1020.61 1020.13 1019.58 1019.12 1018.47 1017.74 1017.09 1016.43 1016.12 1015.84 1015.37 1014.70 1014.66 1014.37 1013.91 1013.29 1013.41 1013.29 1012.40 1012.37 1011.78 1010.87
Wind_Speed
2 6 1 3 5 1 9 4 4 1 5 4 12 17 14 6 11 18 19 17 20 15 20 20 20 21 21 19 16 16 16 12
6 7 8 8 3 5 5 5 4 4 6 6 14 16 14 13 7 14 15 14 14 15 17 18 19 21 20 20 21 18 17 14
3 7 6 9 7 5 4 4 6 4 2 9 8 8 12 10 11 10 15 14 15 15 11 15 15 16 17 17 18 18 16 14
4 6 6 15 6 4 6 7 2 2 5 6 13 9 9 13 14 10 8 9 10 10 5 8 14 14 18 17 18 17 17 16
5 8 8 9 6 5 5 3 2 2 3 11 15 16 12 16 19 13 5 5 7 7 5 5 4 3 9 14 14 14 14 15
5 3 3 3 5 6 6 5 3 5 5 13 19 21 18 17 17 18 14 12 7 7 2 2 3 4 5 7 12 13 13 14
3 3 3 3 3 5 4 3 4 6 6 7 12 16 15 13 15 17 15 14 12 9 4 3 4 6 6 7 7 13 14 14
4 4 5 1 3 6 6 4 1 3 3 4 7 11 17 17 15 14 15 14 12 12 10 9 8 3 3 6 4 14 17 18
3 5 7 5 4 4 2 1 4 5 1 4 5 10 12 13 14 14 14 15 16 14 12 10 11 7 5 5 4 4 12 13
1 5 2 6 3 3 8 3 5 5 4 5 6 1 8 10 11 12 13 11 13 11 11 10 10 10 10 6 4 4 5 5
4 3 5 5 3 5 1 5 4 2 5 8 10 7 3 10 13 8 8 6 6 8 9 9 8 10 10 9 3 4 1 2
3 4 5 4 5 5 3 5 3 5 4 8 10 2 2 15 15 11 10 8 7 8 8 11 10 10 9 10 9 9 7 5
2 4 6 3 10 6 6 2 3 5 4 6 4 4 8 15 14 10 8 10 10 8 7 7 10 8 6 7 9 9 8 7
2 1 7 4 4 1 1 1 3 3 4 9 9 10 12 9 13 14 11 9 9 11 7 6 6 7 9 8 9 9 8 9
6 6 2 1 3 2 2 3 3 4 7 11 13 10 17 14 9 11 12 10 9 6 12 9 5 5 8 8 10 11 9 9
3 3 5 6 5 3 2 5 8 11 11 13 15 13 12 15 13 8 9 11 7 8 7 10 9 6 4 9 8 10 11 11
6 7 4 4 4 3 5 8 8 10 10 12 16 16 13 14 12 11 9 10 8 8 7 10 8 10 5 4 8 10 9 8
8 7 5 5 5 3 6 8 9 11 12 12 15 15 14 15 12 10 11 10 11 9 6 8 8 10 9 10 9 9 8 8
4 6 7 5 5 6 8 10 8 9 10 12 14 13 16 14 14 15 14 12 13 6 6 6 8 11 6 5 7 9 10 10
Wind_Direction
91 65 50 297 42 243 101 10 78 240 310 26 352 14 348 241 195 205 211 207 203 195 187 186 187 188 187 183 197 192 197 190
309 25 25 76 314 49 10 118 149 335 86 332 342 345 360 347 249 229 213 200 207 206 194 191 189 189 191 187 185 196 193 196
43 23 359 17 14 10 108 83 141 139 4 349 317 329 348 345 334 248 212 199 195 201 191 196 192 194 194 194 192 187 193 195
22 319 111 83 72 83 90 330 11 131 211 349 336 324 351 352 339 330 204 201 200 200 157 177 193 199 195 195 194 196 191 188
3 347 10 50 7 59 101 75 0 63 249 341 339 344 358 5 348 321 230 143 93 92 113 114 122 181 205 206 204 196 198 196
162 182 227 29 46 49 94 77 286 253 300 342 345 348 352 6 6 20 40 45 57 69 99 146 68 156 196 216 204 199 198 200
142 185 142 206 89 76 101 179 152 274 344 327 340 346 344 353 17 19 20 36 33 38 33 284 228 206 193 193 206 199 204 203
345 332 0 308 241 172 181 147 222 253 259 321 334 349 5 359 9 19 10 16 18 30 19 25 13 304 239 172 201 197 202 209
297 326 353 13 350 83 127 78 169 198 229 349 338 5 3 352 3 4 7 2 15 11 -0 11 14 6 331 278 249 136 210 210
201 13 318 238 278 99 114 82 69 87 356 338 320 321 18 352 355 356 357 6 0 356 355 355 350 342 320 304 259 226 166 201
142 202 301 283 22 64 9 222 80 108 341 322 321 269 251 1 343 331 345 349 350 343 337 335 353 345 339 355 13 84 82 156
129 145 232 238 312 329 293 248 89 70 23 334 350 334 279 335 322 315 326 331 348 334 340 334 353 358 357 352 17 17 4 327
198 218 283 3 300 289 151 242 31 10 353 329 309 241 301 306 311 316 316 330 327 336 338 332 332 3 6 345 2 334 338 314
162 261 268 6 316 293 14 28 357 312 316 288 284 296 299 295 304 313 314 324 327 319 325 319 320 3 349 3 338 331 319 300
179 223 134 340 243 346 12 272 277 302 299 288 288 289 290 298 285 291 304 306 310 315 308 307 340 7 341 330 332 331 312 313
19 264 227 280 250 209 249 278 297 305 294 293 290 290 276 281 285 278 282 294 296 302 291 298 320 341 296 319 337 318 314 324
262 277 286 290 227 271 286 304 292 287 289 288 283 283 277 273 268 276 280 278 282 270 278 292 309 316 326 283 319 315 315 304
221 211 156 230 207 242 285 288 281 285 284 300 290 284 283 276 267 251 271 278 277 265 271 284 299 304 321 334 338 331 327 315
220 190 190 217 237 230 243 258 264 298 278 299 299 293 285 278 273 267 254 258 260 245 264 281 300 301 308 328 323 317 304 315